Regional Weather Roundup
Issued by NWS Upton, NY

Current Version | Previous Version | Text Only | Print | Product List | Glossary On
Versions: 1 2 3 4 5 6 7 8 9 10 11 12 13 14 15 16 17 18 19 20 21 22 23 24 25 26 27 28 29 30 31 32 33 34 35 36 37 38 39 40 41 42 43 44 45 46 47 48 49 50
000
ASUS41 KOKX 212005
RWROKX

REGIONAL WEATHER ROUNDUP
NATIONAL WEATHER SERVICE NEW YORK NY
400 PM EDT MON JUL 21 2014

NOTE: "FAIR" INDICATES FEW OR NO CLOUDS BELOW 12,000 FEET WITH NO
SIGNIFICANT WEATHER AND/OR OBSTRUCTIONS TO VISIBILITY.

NYZ071-072-176-178-NJZ106-104-212100-
NEW YORK CITY METRO AREA


CITY           SKY/WX    TMP DP  RH WIND       PRES   REMARKS
CENTRAL PARK   SUNNY     85  57  38 NE5       30.17F
LAGUARDIA APRT MOSUNNY   83  58  42 VRB6      30.13F
KENNEDY INTL   MOSUNNY   80  64  58 S9        30.16F
NEWARK/LIBERTY PTSUNNY   84  58  40 SE5       30.13F
BRNX BOT. GARD   N/A     82  61  47 SE8       30.14F
TETERBORO      MOSUNNY   86  59  39 S6        30.12F
$$

NYZ177-179-078>081-212100-
LONG ISLAND NEW YORK

CITY           SKY/WX    TMP DP  RH WIND       PRES   REMARKS
FARMINGDALE    SUNNY     79  64  60 S7        30.15F
ISLIP          MOSUNNY   78  63  59 SE9       30.14F
SHIRLEY        SUNNY     77  64  64 S10       30.17F
WESTHAMPTON    SUNNY     76  62  62 SE6       30.18S
MONTAUK POINT    N/A     76  63  64 S5        30.18S
$$

NYZ052-065-067-212100-
HUDSON VALLEY

CITY           SKY/WX    TMP DP  RH WIND       PRES   REMARKS
WHITE PLAINS   MOSUNNY   81  63  54 SE7       30.15F
NEWBURGH       MOSUNNY   82  64  54 W9        30.16F
MONTGOMERY     SUNNY     83  62  49 MISG      30.13F
POUGHKEEPSIE   SUNNY     83  59  44 VRB3      30.12F
ALBANY         MOSUNNY   83  59  44 SW7       30.13F
$$

NJZ001-105-106-008-010-013-015-019>022-104-212100-
NEW JERSEY

CITY           SKY/WX    TMP DP  RH WIND       PRES   REMARKS
NEWARK/LIBERTY PTSUNNY   84  58  40 SE5       30.13F
TETERBORO      MOSUNNY   86  59  39 S6        30.12F
CALDWELL       SUNNY     85  61  44 CALM      30.14F
MORRISTOWN     MOSUNNY   84  66  54 CALM      30.15F
SOMERVILLE     MOSUNNY   84  57  39 NW5       30.13F
LINDEN         FAIR      84  61  45 SW5       30.15F
SUSSEX         MOSUNNY   85  62  46 VRB3      30.15F
ANDOVER          N/A     82  60  47 CALM      30.16F
TRENTON        MOSUNNY   84  57  39 VRB3      30.15F
MILLVILLE      PTSUNNY   79  65  62 SW8       30.17F
ATLANTIC CITY  SUNNY     77  64  64 SE10      30.17S
WRIGHTSTOWN    SUNNY     84  60  44 NE6       30.14S
TOMS RIVER     MOSUNNY   81  63  54 SE5       30.17S
BELMAR         MOSUNNY   81  63  54 E8        30.16F
$$

PAZ047>061-062-071-212100-
EASTERN PENNSYLVANIA

CITY           SKY/WX    TMP DP  RH WIND       PRES   REMARKS
PHILADELPHIA   PTSUNNY   85  57  38 S6        30.15S
ALLENTOWN      PTSUNNY   83  62  49 CALM      30.16F
SCRANTON       PTSUNNY   83  60  45 CALM      30.15F
$$

CTZ002-004>006-009-010-012-RIZ004-006-007-MAZ004-011-015-212100-
SOUTHERN NEW ENGLAND
 IN CT

CITY           SKY/WX    TMP DP  RH WIND       PRES   REMARKS
BRADLEY INTL   MOSUNNY   84  58  40 N7        30.13F
HARTFORD       SUNNY     83  58  42 VRB5      30.13F
DANBURY        MOSUNNY   81  61  50 SE6       30.16F
WTRBRY/OXFORD  PTSUNNY   81  63  54 VRB5      30.19F
BRIDGEPORT     SUNNY     80  61  52 SW8       30.15F
MERIDEN        SUNNY     83  58  42 SW7       30.14F
NEW HAVEN      MOSUNNY   79  61  53 S7        30.16F
CHESTER        FAIR      81  64  57 S6        30.16F
GROTON         SUNNY     74  62  66 S7        30.15F
WILLIMANTIC    SUNNY     82  57  42 VRB6      30.15F

 IN RI

CITY           SKY/WX    TMP DP  RH WIND       PRES   REMARKS
PROVIDENCE     MOSUNNY   81  57  43 NE3       30.15F
BLOCK ISLAND   SUNNY     73  63  68 CALM      30.17S
WESTERLY       SUNNY     76  60  57 S7        30.17S

 IN MA

CITY           SKY/WX    TMP DP  RH WIND       PRES   REMARKS
BOSTON         MOSUNNY   67  61  81 E10       30.18S FOG
WORCESTER      SUNNY     77  54  44 N7        30.18F
WESTFIELD      MOSUNNY   82  57  42 CALM      30.13F
PROVINCETOWN   CLOUDY    70  64  83 CALM      30.17F
NANTUCKET      CLOUDY    69  63  81 N17       30.14F
$$

ANZ330-335-338-340-345-350-353-355-212100-
COASTAL MARINE OBSERVATIONS


STATION/POSITION TIME  SKY/WX   TEMP    WIND        PRES    VSBY  WAVE
                                AIR SEA DIR/SP/G                  HT/PER
                 (UTC)          (F)     (DEG/KT/KT) (MB)    (MI)  (FT/S)
NY HARB ENTRANCE NOT AVBL
4S FIRE IS       NOT AVBL
23SW MTP         2000            69 71              1021.1          3/ 7
HUDSON CANYON    1900            69 72   20/  8/ 10 1021.7          4/ 6
EXECUTION ROCKS  2000            76 72  110/  4/  6   N/A
WESTERN LI SOUND 2000            77     130/  4/  4   N/A           1
CENTRAL LI SOUND 1900            73 73  210/  6/  8   N/A           1
EASTERN LI SOUND 1900            70 68  180/  4/  6   N/A
ROBBINS REEF     1900            76     160/ 11/ 13   N/A
$$


>>>>>>>>>>>>>>>>>>>>>>>>>>>> KEY <<<<<<<<<<<<<<<<<<<<<<<<<<<
>                                                          <
>     SKY/WX - SKY CONDITION/PRESENT WEATHER               <
>     TMP    - TEMPERATURE IN FAHRENHEIT                   <
>     DP     - DEWPOINT IN FAHRENHEIT                      <
>     RH     - RELATIVE HUMIDITY IN PERCENT                <
>     WIND   - DIRECTION AND SPEED IN MPH                  <
>     PRES   - MEAN SEA LEVEL PRESSURE IN INCHES OF HG     <
>     WCI    - WIND CHILL INDEX                            <
>     VSB    - VISIBILITY IN MILES                         <
>     HX     - HEAT INDEX                                  <
>     TC     - TEMPERATURE IN CELSIUS                      <
>     VRB    - VARIABLE WIND DIRECTION                     <
>                                                          <
>>>>>>>>>>>>>>>>>>>>>>>>>>>> KEY <<<<<<<<<<<<<<<<<<<<<<<<<<<





USA.gov is the U.S. government's official web portal to all federal, state and local government web resources and services.